TimeCST,TemperatureF,Dew PointF,Humidity,Sea Level PressureIn,VisibilityMPH,Wind Direction,Wind SpeedMPH,Gust SpeedMPH,PrecipitationIn,Events,Conditions,WindDirDegrees,DateUTC
12:55 AM,5.0,-2.9,70,30.43,10.0,North,8.1,-,N/A,,Mostly Cloudy,350,2013-01-20 06:55:00
1:55 AM,3.2,-4.0,72,30.36,10.0,North,5.8,-,N/A,,Overcast,350,2013-01-20 07:55:00
2:55 AM,5.0,-4.0,66,30.43,10.0,North,4.6,-,N/A,,Mostly Cloudy,10,2013-01-20 08:55:00
3:55 AM,5.0,-2.9,70,30.43,10.0,Calm,Calm,-,N/A,,Overcast,0,2013-01-20 09:55:00
4:55 AM,5.0,-2.0,73,30.44,2.5,NW,5.8,-,0.00,Snow,Light Snow,320,2013-01-20 10:55:00
5:02 AM,5.0,-0.4,78,30.36,2.0,NW,4.6,-,0.00,Snow,Light Snow,310,2013-01-20 11:02:00
5:15 AM,5.0,-0.4,78,30.36,1.8,NW,6.9,-,0.00,Snow,Light Snow,320,2013-01-20 11:15:00
5:42 AM,5.0,-0.4,78,30.35,2.0,WNW,4.6,-,0.01,Snow,Light Snow,300,2013-01-20 11:42:00
5:55 AM,5.0,-0.0,80,30.44,2.0,NW,4.6,-,0.01,Snow,Light Snow,310,2013-01-20 11:55:00
6:09 AM,3.2,-0.4,85,30.35,1.5,NW,4.6,-,0.01,Snow,Light Snow,310,2013-01-20 12:09:00
6:55 AM,3.2,-0.4,85,30.34,1.2,Calm,Calm,-,N/A,Snow,Light Snow,0,2013-01-20 12:55:00
7:33 AM,5.0,-0.4,78,30.35,2.5,North,5.8,-,0.02,Snow,Light Snow,350,2013-01-20 13:33:00
7:55 AM,5.0,-0.0,80,30.45,2.5,NNW,4.6,-,0.02,Snow,Light Snow,330,2013-01-20 13:55:00
8:23 AM,5.0,-0.4,78,30.38,0.8,NW,5.8,-,0.01,Snow,Light Snow,310,2013-01-20 14:23:00
8:36 AM,5.0,-0.4,78,30.39,1.5,NNW,6.9,-,0.01,Snow,Light Snow,330,2013-01-20 14:36:00
8:55 AM,5.0,1.0,84,30.50,1.8,NW,5.8,-,0.01,Snow,Light Snow,310,2013-01-20 14:55:00
9:11 AM,5.0,1.4,85,30.41,2.0,NW,5.8,-,0.01,Snow,Light Snow,310,2013-01-20 15:11:00
9:20 AM,5.0,1.4,85,30.41,1.5,NW,8.1,-,0.01,Snow,Light Snow,310,2013-01-20 15:20:00
9:30 AM,6.8,1.4,79,30.42,3.0,NW,8.1,-,0.01,Snow,Light Snow,310,2013-01-20 15:30:00
9:40 AM,6.8,1.4,79,30.42,4.0,NW,8.1,-,0.01,Snow,Light Snow,310,2013-01-20 15:40:00
9:55 AM,6.1,1.9,83,30.53,7.0,WNW,6.9,-,0.01,,Overcast,300,2013-01-20 15:55:00
10:55 AM,7.0,1.9,80,30.54,9.0,NW,8.1,-,N/A,,Overcast,310,2013-01-20 16:55:00
11:55 AM,10.0,3.9,76,30.53,10.0,NW,11.5,-,N/A,,Overcast,310,2013-01-20 17:55:00
12:55 PM,12.9,5.0,71,30.50,10.0,NW,19.6,-,N/A,,Overcast,320,2013-01-20 18:55:00
1:37 PM,12.2,6.8,79,30.40,10.0,NW,20.7,-,N/A,,Overcast,320,2013-01-20 19:37:00
1:55 PM,12.9,6.1,74,30.48,10.0,NW,18.4,-,N/A,,Overcast,320,2013-01-20 19:55:00
2:07 PM,12.2,6.8,79,30.39,10.0,NW,19.6,23.0,N/A,,Overcast,320,2013-01-20 20:07:00
2:55 PM,12.2,6.8,79,30.39,6.0,NNW,18.4,-,N/A,Snow,Light Snow,330,2013-01-20 20:55:00
3:43 PM,10.4,5.0,79,30.38,2.0,NNW,19.6,-,0.00,Snow,Light Snow,330,2013-01-20 21:43:00
3:52 PM,10.4,5.0,79,30.39,4.0,NNW,21.9,-,0.00,Snow,Light Snow,330,2013-01-20 21:52:00
3:55 PM,10.9,5.0,77,30.48,4.0,NNW,19.6,-,0.00,Snow,Light Snow,330,2013-01-20 21:55:00
4:55 PM,9.0,1.0,70,30.48,10.0,NW,18.4,-,0.00,,Clear,320,2013-01-20 22:55:00
5:55 PM,7.0,-2.0,67,30.49,10.0,NW,18.4,-,N/A,,Clear,320,2013-01-20 23:55:00
6:20 PM,6.8,-2.2,67,30.41,10.0,NW,16.1,-,N/A,,Mostly Cloudy,320,2013-01-21 00:20:00
6:55 PM,3.9,-5.1,66,30.51,10.0,NNW,16.1,-,N/A,,Scattered Clouds,330,2013-01-21 00:55:00
7:55 PM,1.0,-7.1,69,30.51,10.0,NW,16.1,-,N/A,,Clear,320,2013-01-21 01:55:00
8:55 PM,1.0,-8.0,66,30.51,10.0,NNW,23.0,28.8,N/A,,Clear,330,2013-01-21 02:55:00
9:55 PM,-0.0,-9.0,66,30.52,10.0,NNW,25.3,-,N/A,,Scattered Clouds,330,2013-01-21 03:55:00
10:06 PM,-0.4,-9.4,66,30.42,9.0,NW,24.2,31.1,N/A,,Mostly Cloudy,320,2013-01-21 04:06:00
10:31 PM,-2.2,-11.2,66,30.43,10.0,NNW,19.6,31.1,N/A,,Scattered Clouds,330,2013-01-21 04:31:00
10:55 PM,-2.0,-11.9,63,30.55,10.0,NNW,16.1,-,N/A,,Clear,330,2013-01-21 04:55:00
11:55 PM,-2.0,-11.9,63,30.54,10.0,NW,24.2,28.8,N/A,,Clear,320,2013-01-21 05:55:00